Rockport, TX

5:34 AM CST on February 22, 2017 (GMT -0600)
Aransas County

Weather History for KRKP - January, 2013

Change the Weather History Date:

Friday, January 11, 2013

  Actual Average Record
Temperature  
Mean Temperature 62 °F -  
Max Temperature 73 °F 62 °F 82 °F (1980)
Min Temperature 50 °F 42 °F 18 °F (1982)
Degree Days  
Heating Degree Days 4    
Growing Degree Days 12 (Base 50)    
Moisture  
Dew Point 61 °F    
Average Humidity 94    
Maximum Humidity 100    
Minimum Humidity 76    
Precipitation  
Precipitation 0.00 in - - ()
Sea Level Pressure  
Sea Level Pressure 29.92 in    
Wind  
Wind Speed 5 mph (SE)    
Max Wind Speed 12 mph    
Max Gust Speed -    
Visibility 4 miles    
Events Fog    
Averages and records for this station are not official NWS values.
T = Trace of Precipitation, MM = Missing Value Source: NWS Daily Summary

Daily Weather History Graph

Daily Weather History Graph

Search for Another Location

Airport or City:

Trip Planner

Search our weather history database for the weather conditions in past years. The results will help you decide how hot, cold, wet, or windy it might be!

Date:

Astronomy

Jan. 11, 2013 Rise Set
Actual Time 7:21 AM CST 5:51 PM CST
Civil Twilight 6:55 AM CST 6:17 PM CST
Nautical Twilight 6:26 AM CST 6:45 PM CST
Astronomical Twilight 5:58 AM CST 7:14 PM CST
Moon 6:58 AM CST (1/11) 6:05 PM CST (1/11)
Length of Visible Light 11h 21m
Length of Day
10h 30m
Waning Crescent, 0% of the Moon is Illuminated
Jan 11
Waning Crescent
Jan 11
New
Jan 18
First Quarter
Jan 26
Full
Feb 3
Last Quarter

Hourly Weather History & Observations

Time (CST) Temp. Dew Point Humidity Pressure Visibility Wind Dir Wind Speed Gust Speed Precip Events Conditions
12:53 AM 55.9 °F 53.1 °F 90% 30.05 in 10.0 mi SSE 5.8 mph - N/A   Clear
1:53 AM 55.0 °F 53.1 °F 93% 30.04 in 10.0 mi SSE 4.6 mph - N/A   Clear
2:53 AM 54.0 °F 53.1 °F 97% 30.04 in 9.0 mi South 3.5 mph - N/A   Clear
3:53 AM 53.1 °F 52.0 °F 96% 30.01 in 9.0 mi SSW 3.5 mph - N/A   Clear
4:44 AM 51.8 °F 50.0 °F 94% 29.99 in 1.8 mi Calm Calm - N/A   Clear
4:47 AM 50.0 °F 50.0 °F 100% 29.99 in 0.8 mi Calm Calm - N/A   Clear
4:53 AM 51.1 °F 50.0 °F 96% 30.00 in 0.5 mi Calm Calm - N/A Fog Fog
5:53 AM 50.0 °F 48.9 °F 96% 29.99 in 0.2 mi Calm Calm - N/A Fog Fog
6:02 AM 51.8 °F 50.0 °F 94% 29.98 in 1.2 mi Calm Calm - N/A   Partly Cloudy
6:17 AM 50.0 °F 50.0 °F 100% 29.98 in 0.8 mi Calm Calm - N/A   Mist
6:28 AM 50.0 °F 48.2 °F 94% 29.98 in 0.5 mi Calm Calm - N/A Fog Fog
6:46 AM 51.8 °F 50.0 °F 94% 29.98 in 1.5 mi Calm Calm - N/A   Clear
6:53 AM 50.0 °F 50.0 °F 100% 29.99 in 0.8 mi Calm Calm - N/A   Clear
7:53 AM 53.1 °F 53.1 °F 100% 29.99 in 0.8 mi Calm Calm - N/A   Clear
7:58 AM 53.6 °F 53.6 °F 100% 29.98 in 1.2 mi Calm Calm - N/A   Clear
8:06 AM 53.6 °F 53.6 °F 100% 29.99 in 2.5 mi Calm Calm - N/A   Clear
8:13 AM 53.6 °F 53.6 °F 100% 29.99 in 4.0 mi Calm Calm - N/A   Clear
8:53 AM 59.0 °F 57.9 °F 96% 30.00 in 7.0 mi ESE 3.5 mph - N/A   Partly Cloudy
9:06 AM 57.2 °F 57.2 °F 100% 29.99 in 9.0 mi ESE 4.6 mph - N/A   Mostly Cloudy
9:21 AM 59.0 °F 57.2 °F 94% 29.99 in 9.0 mi ESE 3.5 mph - N/A   Overcast
9:53 AM 62.1 °F 60.1 °F 93% 30.00 in 10.0 mi East 4.6 mph - N/A   Overcast
10:33 AM 64.4 °F 60.8 °F 88% 29.98 in 9.0 mi ESE 4.6 mph - N/A   Scattered Clouds
10:53 AM 64.0 °F 61.0 °F 90% 29.99 in 10.0 mi ESE 6.9 mph - N/A   Scattered Clouds
11:01 AM 64.4 °F 60.8 °F 88% 29.98 in 10.0 mi ESE 8.1 mph - N/A   Mostly Cloudy
11:53 AM 68.0 °F 63.0 °F 84% 29.96 in 10.0 mi SE 8.1 mph - N/A   Overcast
12:38 PM 71.6 °F 64.4 °F 78% 29.92 in 10.0 mi SE 11.5 mph - N/A   Mostly Cloudy
12:53 PM 73.0 °F 64.9 °F 76% 29.91 in 10.0 mi SE 10.4 mph - N/A   Mostly Cloudy
1:17 PM 73.4 °F 66.2 °F 78% 29.90 in 10.0 mi SSE 10.4 mph - N/A   Mostly Cloudy
2:53 PM 70.0 °F 66.0 °F 87% 29.88 in 10.0 mi ESE 8.1 mph - N/A   Overcast
3:28 PM 69.8 °F 64.4 °F 83% 29.87 in 10.0 mi SE 8.1 mph - N/A   Overcast
3:53 PM 68.0 °F 64.9 °F 90% 29.87 in 9.0 mi SE 5.8 mph - N/A   Overcast
4:32 PM 68.0 °F 64.4 °F 88% 29.85 in 9.0 mi SE 9.2 mph - N/A   Overcast
4:44 PM 68.0 °F 66.2 °F 94% 29.85 in 9.0 mi SE 11.5 mph - N/A   Overcast
4:53 PM 68.0 °F 66.0 °F 93% 29.86 in 9.0 mi SE 10.4 mph - N/A   Overcast
4:58 PM 68.0 °F 66.2 °F 94% 29.85 in 8.0 mi SE 10.4 mph - N/A   Overcast
5:45 PM 64.4 °F 64.4 °F 100% 29.84 in 2.0 mi ESE 8.1 mph - N/A   Overcast
5:50 PM 64.4 °F 64.4 °F 100% 29.84 in 1.0 mi ESE 8.1 mph - N/A   Overcast
5:53 PM 64.9 °F 64.0 °F 97% 29.85 in 1.0 mi ESE 9.2 mph - N/A   Mist
6:00 PM 66.2 °F 64.4 °F 94% 29.84 in 2.0 mi ESE 9.2 mph - N/A   Overcast
6:02 PM 66.2 °F 64.4 °F 94% 29.84 in 3.0 mi SE 9.2 mph - N/A   Overcast
6:29 PM 66.2 °F 64.4 °F 94% 29.84 in 2.0 mi SE 10.4 mph - N/A   Overcast
6:40 PM 66.2 °F 66.2 °F 100% 29.84 in 2.5 mi SE 9.2 mph - N/A   Overcast
6:48 PM 66.2 °F 64.4 °F 94% 29.83 in 1.8 mi SE 11.5 mph - N/A   Overcast
6:53 PM 66.0 °F 64.9 °F 96% 29.84 in 0.8 mi SE 10.4 mph - N/A   Mist
7:53 PM 66.9 °F 66.0 °F 97% 29.86 in 0.5 mi SE 8.1 mph - N/A Fog Fog
8:25 PM 68.0 °F 66.2 °F 94% 29.86 in 1.2 mi SSE 6.9 mph - N/A   Overcast
8:37 PM 68.0 °F 68.0 °F 100% 29.86 in 2.5 mi SE 6.9 mph - N/A   Overcast
8:50 PM 68.0 °F 66.2 °F 94% 29.85 in 1.8 mi SSE 8.1 mph - N/A   Overcast
8:53 PM 68.0 °F 66.9 °F 96% 29.86 in 1.5 mi SSE 8.1 mph - N/A   Overcast
9:08 PM 66.2 °F 66.2 °F 100% 29.85 in 0.8 mi SE 8.1 mph - N/A   Mist
9:49 PM 68.0 °F 68.0 °F 100% 29.86 in 1.2 mi SSE 5.8 mph - N/A   Overcast
9:53 PM 69.1 °F 68.0 °F 96% 29.87 in 2.0 mi Variable 4.6 mph - N/A   Overcast
9:56 PM 69.8 °F 68.0 °F 94% 29.87 in 3.0 mi SSE 5.8 mph - N/A   Overcast
10:05 PM 69.8 °F 69.8 °F 100% 29.87 in 2.0 mi South 4.6 mph - N/A   Overcast
10:13 PM 69.8 °F 68.0 °F 94% 29.87 in 1.2 mi South 6.9 mph - N/A   Overcast
10:20 PM 69.8 °F 68.0 °F 94% 29.86 in 1.0 mi SSE 6.9 mph - N/A   Overcast
10:35 PM 69.8 °F 68.0 °F 94% 29.87 in 1.5 mi SSE 5.8 mph - N/A   Overcast
10:53 PM 69.1 °F 68.0 °F 96% 29.88 in 1.8 mi SSE 6.9 mph - N/A   Overcast
11:39 PM 69.8 °F 68.0 °F 94% 29.87 in 0.8 mi South 6.9 mph - N/A   Overcast
11:53 PM 69.1 °F 68.0 °F 96% 29.87 in 0.8 mi South 4.6 mph - N/A   Mist